Grand Forks International Airport Grand Forks US
ICAO: KGFK
IATA: GFK
Category: Medium
Scheduled Services: Yes

Elevation: 845 ft
TransAlt. 18000 ft.

Airport Communications:
APP/DEP:118.1
ATIS:119.4
CTAF:118.4
GND:124.575
RDO:122.2
Grand Forks Tower:118.4
UNICOM:122.95

KGFK Zoom In..

If you have problems with the map follow the link
https://www.worldairports.se/pages/airport.php?
ICAO=KGFK

Runways:

(A) RW 09L length 4206 ft width 100 ft
---- / hdg 84

(B) RW 09R length 3300 ft width 60 ft
---- / hdg 84

(C) RW 17L length 3901 ft width 75 ft
---- / hdg 174

(D) RW 17R length 7351 ft width 150 ft
---- / hdg 174

(E) RW 27L length 3300 ft width 60 ft
---- / hdg 264

(F) RW 27R length 4206 ft width 100 ft
---- / hdg 264

(G) RW 35L length 7351 ft width 150 ft
ILS 109.10 / hdg 354

(H) RW 35R length 3901 ft width 75 ft
---- / hdg 354

Location; KGFK
Day. 21 / Time. 19.53 Zulu
* Altimeter: 29.75
* Temperature: -09° c. -15.8°f.
* Wind from: 180° Speed 19 kn.
Dewpoint: -13° c.
Visibility: 9 Statute Miles.
Clouds: Broken 12000 ft.
Clouds: Overcast 2000 ft.

KGFK 211953Z 18019KT 9SM BKN120 OVC200 M09/M13 A2975 RMK AO2 PK WND 18027/1902 PRESFR SLP098 T10941128 $


Wind From 180°
Speed 19 kn.

 
 
jpsmedia worldairports.se 2020   terms of use